STARLINK-34998

Last updated on Tue Sep 16 2025 00:02:08 GMT+0000 (Coordinated Universal Time)

1 65474U 25195S 25258.02457821 -.00542391 00000+0 -35296-2 0 9991 2 65474 53.1560 0.1799 0002020 67.8635 292.2600 15.76698560 2997
UTC large
Height (km)
Speed (km/s)
/
Latitude / Longitude
Inclination (degrees)
Orbital Period (minutes)
Azimuth
Elevation
Range (km)
Doppler Factor

Next 0 passes for location: London (51.5072 / 0.1276)

Sorry there are no passes over London.